Home > Weather > Irving > Past weeks

Flag for USA Past Weather in Irving, Texas, USA — Yesterday and Last 2 Weeks

Now
88 °F

Passing clouds.


Feels Like: 91 °F
Forecast: 82 / 98 °F
Wind: 14 mph from South

Location: Dallas / Fort Worth International Airport

Current Time: Jul 31, 2016 at 12:31:57 AM

Latest Report: Jul 30, 2016 at 11:53 PM


Visibility: 10 mi

Pressure: 29.89 "Hg

Humidity: 50%

Dew Point: 67 °F

Location of IrvingLocation

Past Weather in Irving — Graph

°F

Irving Temperature Yesterday

Maximum temperature yesterday: 99 °F (at 4:53 PM)
Minimum temperature yesterday: 81 °F (at 6:53 AM)
Average temperature yesterday: 90 °F

High & Low Weather Summary for the Past Weeks

 TemperatureHumidityPressure
High100 °F (Jul 25, 3:53 PM)82% (Jul 26, 4:53 AM)30.17 "Hg (Jul 26, 4:53 AM)
Low76 °F (Jul 16, 6:53 AM)31% (Jul 22, 3:53 PM)29.82 "Hg (Jul 23, 6:53 PM)
Average88 °F56%29.96 "Hg
* Reported Jul 15 10:53 PM — Jul 30 10:53 PM, Irving, Weather by CustomWeather, © 2016

Note: Actual official high and low records may vary slightly from our data, if they occured in-between our weather recording intervals... More about our weather records

Advertising

Irving Weather History for the Previous 24 Hours

Scroll right to see more
 ConditionsComfort  
Time TempWeatherWind HumidityBarometerVisibility
10:53 PM
Sat, Jul 30
90 °FPassing clouds.13 mph47%29.90 "Hg10 mi
9:53 PM91 °FPassing clouds.12 mph45%29.89 "Hg10 mi
8:53 PM93 °FPassing clouds.12 mph36%29.87 "Hg10 mi
7:53 PM95 °FPassing clouds.14 mph34%29.85 "Hg10 mi
6:53 PM97 °FPassing clouds.13 mph33%29.86 "Hg10 mi
5:53 PM98 °FPassing clouds.15 mph31%29.85 "Hg10 mi
4:53 PM99 °FPassing clouds.14 mph33%29.88 "Hg10 mi
3:53 PM98 °FScattered clouds.13 mph36%29.89 "Hg10 mi
2:53 PM98 °FScattered clouds.10 mph36%29.90 "Hg10 mi
1:53 PM96 °FScattered clouds.8 mph38%29.93 "Hg10 mi
12:53 PM96 °FScattered clouds.9 mph41%29.95 "Hg10 mi
11:53 AM93 °FPassing clouds.5 mph46%29.96 "Hg10 mi
10:53 AM91 °FPassing clouds.13 mph50%29.96 "Hg10 mi
9:53 AM89 °FPassing clouds.13 mph55%29.97 "Hg10 mi
8:53 AM85 °FPassing clouds.13 mph63%29.97 "Hg10 mi
7:53 AM82 °FPassing clouds.13 mph70%29.96 "Hg10 mi
6:53 AM81 °FPassing clouds.10 mph72%29.95 "Hg10 mi
5:53 AM82 °FPassing clouds.10 mph67%29.93 "Hg10 mi
4:53 AM82 °FClear.13 mph70%29.93 "Hg10 mi
3:53 AM82 °FClear.12 mph72%29.93 "Hg10 mi
2:53 AM83 °FPassing clouds.12 mph70%29.93 "Hg10 mi
1:53 AM84 °FPassing clouds.10 mph67%29.93 "Hg10 mi
12:53 AM84 °FPassing clouds.9 mph67%29.95 "Hg10 mi
Weather by CustomWeather, © 2016

See weather overviewHow to use our weather pages